Lexington Weather

Lexington, Massachusetts, USA

34°F
4/16/2021 9:38am 
  • Lexington Conditions: Snow, Mist, Overcast
  • Temperature: 34.0°F / 1.1°CColder 3.4°F than last hour.
  • Dew Point: 32.7°FDecreased 3.4°Fsince last hour.
  • Relative Humidity: 95
  • Wind: Calm, 10-min avg: Calm, gust: None
  • Barometer: 29.49 in Steady
  • Visibility: ½ mile
  • Snow Today: 0.3 in
  •   

Regional Weather Roundup
for Boston / Norton, MA

        
000
ASUS41 KBOX 160504
RWRBOX

REGIONAL WEATHER ROUNDUP
NATIONAL WEATHER SERVICE BOSTON/NORTON MA
100 AM EDT FRI APR 16 2021

NOTE:  "FAIR" INDICATES FEW OR NO CLOUDS BELOW 12,000 FEET WITH NO 
SIGNIFICANT WEATHER AND/OR OBSTRUCTIONS TO VISIBILITY.

MAZALL-160600-
EASTERN MASSACHUSETTS
  
CITY           SKY/WX    TMP DP  RH WIND       PRES   REMARKS
BOSTON         LGT RAIN  45  41  86 NE16      29.71F                  
BEVERLY        NOT AVBL                                               
LAWRENCE       LGT RAIN  40  37  89 NE3       29.74F                  
BEDFORD        RAIN      39  39 100 N7        29.72F FOG              
BLUE HILL        N/A     37  36  96 N8        29.68F WCI  31          
NORWOOD        CLOUDY    42  37  82 N6        29.71S                  
MARSHFIELD     CLOUDY    45  39  81 E14       29.68S                  
PLYMOUTH       RAIN      43  38  82 E7        29.67R                  
TAUNTON        RAIN      42  39  89 CALM      29.69R FOG              
NEW BEDFORD    RAIN      41  40  96 N6        29.67R                  
$$

MAZALL-160600-
CAPE COD AND THE ISLANDS
  
CITY           SKY/WX    TMP DP  RH WIND       PRES   REMARKS
FALMOUTH       LGT RAIN  43  41  93 E14       29.65R FOG              
HYANNIS        LGT RAIN  44  41  89 NE8       29.62F                  
CHATHAM        LGT RAIN  45  41  86 E18G26    29.62F                  
PROVINCETOWN   LGT RAIN  44  41  89 E15       29.67F                  
NANTUCKET      LGT RAIN  45  43  93 E17G31    29.55F                  
MARTHAS VNYRD  RAIN      44  42  93 E10       29.64S FOG              
$$
 
MAZALL-160600-
CENTRAL AND WESTERN MASSACHUSETTS
  
CITY           SKY/WX    TMP DP  RH WIND       PRES   REMARKS
WORCESTER      LGT SNOW  33  31  92 N5        29.70S VSB 3/4 WCI  29  
FITCHBURG      LGT SNOW  34  34 100 CALM      29.74S FOG              
ORANGE         LGT SNOW  33  32  96 CALM      29.73F FOG              
SPRINGFIELD    LGT RAIN  37  36  98 N5        29.70F                  
WESTFIELD      LGT SNOW  35  34  96 N8        29.71F FOG     WCI  29  
NORTH ADAMS    LGT SNOW  34  34 100 CALM      29.71F FOG              
PITTSFIELD     LGT SNOW  33  32  96 CALM      29.67F FOG              
$$
 
RIZALL-160600-
RHODE ISLAND
  
CITY           SKY/WX    TMP DP  RH WIND       PRES   REMARKS
PROVIDENCE     RAIN      41  41 100 N9        29.69F                  
NEWPORT        RAIN      40  38  93 N9        29.66F                  
BLOCK ISLAND   LGT RAIN  40  38  93 N15G23    29.64F WCI  32          
SMITHFIELD     MIX PCPN  37  37 100 NE9       29.69F FOG     WCI  30  
WESTERLY       LGT RAIN  38  37  97 N8        29.66F                  
$$
 
CTZALL-160600-
CONNECTICUT
  
CITY           SKY/WX    TMP DP  RH WIND       PRES   REMARKS
BRADLEY INTL   LGT RAIN  38  34  85 N12       29.71F FOG     WCI  30  
HARTFORD       LGT RAIN  39  35  86 N7        29.70F                  
BRIDGEPORT     CLOUDY    41  38  89 N6        29.68S                  
DANBURY        CLOUDY    40  35  83 N8        29.70S                  
GROTON         LGT RAIN  38  35  89 N13G22    29.67F WCI  30          
NEW HAVEN      CLOUDY    42  39  89 N8        29.67F                  
CHESTER        LGT RAIN  39  37  93 N5        29.67S                  
MERIDEN        LGT RAIN  38  35  89 N6        29.69F                  
WILLIMANTIC    LGT RAIN  37  35  92 N8        29.70F WCI  31          
OXFORD         LGT RAIN  36  36 100 N8        29.68F WCI  30          
$$

MEZ002-015-021-024-NHZ003-005-008-011-012-014-VTZ005-008-160600-
NORTHERN NEW ENGLAND
  
CITY           SKY/WX    TMP DP  RH WIND       PRES   REMARKS
PORTLAND ME    CLOUDY    42  37  82 E12       29.78F                  
BANGOR ME      MOCLDY    38  23  55 E7        29.83F                  
CONCORD NH     LGT RAIN  39  35  86 S6        29.75S                  
MANCHESTER NH  RAIN      40  34  79 NE6       29.72F                  
NASHUA NH      LGT RAIN  38  38 100 E5        29.74F                  
PORTSMOUTH NH  MOCLDY    43  36  75 NE9       29.74F                  
JAFFREY NH     LGT SNOW  34  33  96 CALM      29.71F VSB 3/4          
KEENE NH       LGT SNOW  32  31  96 CALM      29.74F VSB 1            
BURLINGTON VT  LGT RAIN  42  35  76 SE5       29.74R                  
MT. WASHINGTON MOCLDY    19  -4  35 E44         N/A  WCI  -2          
$$

NYZ052-076-160600-
EASTERN NEW YORK
  
CITY           SKY/WX    TMP DP  RH WIND       PRES   REMARKS
ALBANY         FLURRIES  33  33 100 W5        29.73F WCI  29          
NEW YORK CITY  MOCLDY    46  38  73 N17       29.69R                  
$$
 
ANZALL-160600-
MARINE OBSERVATIONS
  
STATION/POSITION TIME  TEMP    WIND        PRES    VSBY  WAVE
                       AIR SEA DIR/SP/G                  HT/PER
                 (UTC) (F)     (DEG/KT/KT) (MB)    (MI)  (FT/S)
BOSTON BUOY      0450   44 45   70/ 16/ 19 1005.8F         6/11
BUZZARDS BAY     0400           40/ 15/ 16 1004.9R
NANTUCKET SOUND  0450      47                N/A           3/ 5
MASS BAY-STELLWA 0404   45      80/ 16/ 19 1005.1F  1 7/8  6/11
ISLE OF SHOALS   0400   43      70/ 16/ 18 1006.5F
S OF BLOCK IS    0456      44                N/A           7/ 6
$$

......................KEY.........................
  SKY/WX - SKY CONDITION/PRESENT WEATHER
  TMP    - TEMPERATURE IN FAHRENHEIT
  DWPT   - DEWPOINT IN FAHRENHEIT
  RH     - RELATIVE HUMIDITY IN PERCENT
  WIND   - DIRECTION AND SPEED IN MPH
  PRES   - MEAN SEA LEVEL PRESSURE IN INCHES OF HG
  WCI    - WIND CHILL INDEX
  VSB    - VISIBILITY IN MILES
  HX     - HEAT INDEX
  TC     - TEMPERATURE IN CELSIUS
  VRB    - VARIABLE WIND DIRECTION
  N/A    - NOT AVAILABLE
  
      

Other recent Regional Weather Roundups

Fri Apr 16, 9:04am

Fri Apr 16, 8:04am

Fri Apr 16, 7:04am

Fri Apr 16, 6:04am

Fri Apr 16, 5:04am

Fri Apr 16, 4:04am

Fri Apr 16, 3:04am

Fri Apr 16, 2:04am

Fri Apr 16, 12:04am

Thu Apr 15, 11:05pm

Thu Apr 15, 10:04pm

Thu Apr 15, 9:04pm

Thu Apr 15, 8:04pm

Thu Apr 15, 7:05pm

Thu Apr 15, 6:04pm

Thu Apr 15, 5:05pm

Thu Apr 15, 4:04pm

Thu Apr 15, 3:05pm

Thu Apr 15, 2:04pm

Thu Apr 15, 1:05pm

Thu Apr 15, 12:04pm

Thu Apr 15, 11:04am

Thu Apr 15, 10:05am

Thu Apr 15, 9:04am

Thu Apr 15, 8:04am

Thu Apr 15, 7:04am

Thu Apr 15, 6:04am

Thu Apr 15, 5:04am

Thu Apr 15, 4:04am

Thu Apr 15, 3:04am

Thu Apr 15, 2:04am

Thu Apr 15, 1:04am

Thu Apr 15, 12:04am

Wed Apr 14, 11:04pm

Wed Apr 14, 10:04pm

Wed Apr 14, 9:04pm

Wed Apr 14, 8:04pm

Wed Apr 14, 7:04pm

Wed Apr 14, 6:04pm

Wed Apr 14, 5:05pm

Wed Apr 14, 4:04pm

Wed Apr 14, 3:05pm

Wed Apr 14, 2:04pm

Wed Apr 14, 1:05pm

Wed Apr 14, 12:04pm

Wed Apr 14, 11:04am

Wed Apr 14, 10:04am

Wed Apr 14, 9:04am

Wed Apr 14, 8:04am

Wed Apr 14, 7:04am

Wed Apr 14, 6:04am

Wed Apr 14, 5:04am

Wed Apr 14, 4:04am

Wed Apr 14, 3:04am

Wed Apr 14, 2:04am

Wed Apr 14, 1:04am

Wed Apr 14, 12:04am

Tue Apr 13, 11:04pm

Tue Apr 13, 10:05pm

Tue Apr 13, 9:05pm

Tue Apr 13, 8:05pm

Tue Apr 13, 7:04pm

Tue Apr 13, 6:04pm

Tue Apr 13, 5:05pm

Tue Apr 13, 4:04pm

Tue Apr 13, 3:04pm

Tue Apr 13, 2:05pm

Tue Apr 13, 1:04pm

Tue Apr 13, 12:05pm

Tue Apr 13, 11:05am

Tue Apr 13, 10:04am

Tue Apr 13, 9:04am

Tue Apr 13, 8:04am

Tue Apr 13, 7:04am

Tue Apr 13, 6:04am

Tue Apr 13, 5:04am

Tue Apr 13, 4:04am

Tue Apr 13, 3:04am

Tue Apr 13, 2:04am

Tue Apr 13, 1:04am

Tue Apr 13, 12:05am

Mon Apr 12, 11:04pm

Mon Apr 12, 10:04pm

Mon Apr 12, 9:04pm

Mon Apr 12, 8:04pm

Mon Apr 12, 7:05pm

Mon Apr 12, 6:04pm

Mon Apr 12, 5:04pm

Mon Apr 12, 4:04pm

Mon Apr 12, 3:05pm

Mon Apr 12, 2:04pm

Mon Apr 12, 1:05pm

Mon Apr 12, 12:04pm

Mon Apr 12, 11:04am

Mon Apr 12, 10:04am

Mon Apr 12, 9:04am

Mon Apr 12, 8:04am

Mon Apr 12, 7:04am

Mon Apr 12, 6:04am

Mon Apr 12, 5:04am

Mon Apr 12, 4:04am

Mon Apr 12, 3:04am

Mon Apr 12, 2:04am

Mon Apr 12, 1:05am

Mon Apr 12, 12:04am

Sun Apr 11, 11:04pm

Sun Apr 11, 10:04pm

Sun Apr 11, 9:04pm

Sun Apr 11, 8:04pm

Sun Apr 11, 7:04pm

Sun Apr 11, 6:05pm

Sun Apr 11, 5:05pm

Sun Apr 11, 4:04pm

Sun Apr 11, 3:05pm

Sun Apr 11, 2:05pm

Sun Apr 11, 1:05pm

Sun Apr 11, 12:04pm

Sun Apr 11, 11:05am

Sun Apr 11, 10:05am

Sun Apr 11, 9:04am

Sun Apr 11, 8:04am

Sun Apr 11, 7:04am

Sun Apr 11, 6:04am

Sun Apr 11, 5:04am

Sun Apr 11, 4:04am

Sun Apr 11, 3:04am

Sun Apr 11, 2:04am

Sun Apr 11, 1:05am

Sun Apr 11, 12:04am

Sat Apr 10, 11:05pm

Sat Apr 10, 10:04pm

Sat Apr 10, 9:04pm

Sat Apr 10, 8:04pm

Sat Apr 10, 7:05pm

Sat Apr 10, 6:04pm

Sat Apr 10, 5:04pm

Sat Apr 10, 4:04pm

Sat Apr 10, 3:04pm

Sat Apr 10, 2:05pm

Sat Apr 10, 1:04pm

Sat Apr 10, 12:04pm

Sat Apr 10, 11:04am

Sat Apr 10, 10:04am

Sat Apr 10, 9:04am

Sat Apr 10, 8:04am

Sat Apr 10, 7:04am

Sat Apr 10, 6:04am

Sat Apr 10, 5:04am

Sat Apr 10, 4:04am

Sat Apr 10, 3:04am

Sat Apr 10, 2:04am

Sat Apr 10, 1:05am

Sat Apr 10, 12:04am

Fri Apr 9, 11:04pm

Fri Apr 9, 10:05pm

Fri Apr 9, 9:04pm

Fri Apr 9, 8:05pm

Fri Apr 9, 7:05pm

Fri Apr 9, 6:04pm

Fri Apr 9, 5:04pm

Fri Apr 9, 4:05pm

Fri Apr 9, 3:05pm

Fri Apr 9, 2:04pm

Fri Apr 9, 1:04pm

Fri Apr 9, 12:04pm

Fri Apr 9, 11:05am

Fri Apr 9, 10:04am

Meta data:

ID: 4125e4b9-f256-4007-868d-a068d04d7d7d
Link: https://api.weather.gov/products/4125e4b9-f256-4007-868d-a068d04d7d7d